Location: Carella
(45.8167°N, 9.2667°E)
Time: 08:52:20
(UTC+00:00)

Nadezhda 1 Rocket - Pass Details

Date: 30 March 2020
Orbit: 940 x 1006 km, 83.0° (Epoch: 22 May)

Event Time Altitude Azimuth Distance (km) Brightness Sun altitude
Exits shadow 20:29:53 31° 197° (SSW) 1,691 5.0 -26.4°
Maximum altitude 20:33:12 78° 279° (W) 1,033 4.1 -26.9°
Drops below altitude 10° 20:39:37 10° 6° (N) 2,783 6.8 -27.7°
Sets 20:42:10 0° 8° (N) 3,731 7.5 -28.0°
